Weather History for Goderich, ON

Change the Weather History Date:

Wednesday, December 12, 2012

  Actual Average Record
Temperature  
Mean Temperature 34 °F -  
Max Temperature 37 °F - - ()
Min Temperature 30 °F - - ()
Degree Days  
Heating Degree Days 32    
Moisture  
Dew Point 28 °F    
Average Humidity 76    
Maximum Humidity 89    
Minimum Humidity 61    
Precipitation  
Precipitation 0.00 in - - ()
Sea Level Pressure  
Sea Level Pressure 30.25 in    
Wind  
Wind Speed 15 mph ()    
Max Wind Speed 23 mph    
Max Gust Speed 32 mph    
T = Trace of Precipitation, MM = Missing Value Source: Averaged Metar Reports

Daily Weather History Graph

Daily Weather History Graph

Search for Another Location

Airport:

Trip Planner

Search our weather history database for the weather conditions in past years. The results will help you decide how hot, cold, wet, or windy it might be!

Date:

Astronomy

Dec. 12, 2012 Rise Set
Actual Time 7:51 AM EST 4:49 PM EST
Civil Twilight 7:19 AM EST 5:22 PM EST
Nautical Twilight 6:42 AM EST 5:58 PM EST
Astronomical Twilight 6:07 AM EST 6:33 PM EST
Moon 6:54 AM EST (12/12) 4:26 PM EST (12/12)
Length of Visible Light 10h 03m
Length of Day
8h 57m
Waning Crescent, 1% of the Moon is Illuminated
Dec 12
Waning Crescent
Dec 13
New
Dec 20
First Quarter
Dec 28
Full
Jan 4
Last Quarter

Hourly Weather History & Observations

Time (EST) Temp. Windchill Dew Point Humidity Pressure Visibility Wind Dir Wind Speed Gust Speed Precip Events Conditions
12:00 AM 33.1 °F 20.6 °F 23.7 °F 68% 30.10 in - SW 23.0 mph 32.2 mph N/A   Unknown
1:00 AM 33 °F - 25 °F 62% 30.11 in - WSW 20.7 mph - -  
1:00 AM 31.3 °F 18.9 °F 24.8 °F 77% 30.11 in - WSW 20.7 mph 27.6 mph N/A   Unknown
2:00 AM 32.9 °F 21.3 °F 25.5 °F 74% 30.12 in - WSW 19.6 mph 26.5 mph N/A   Unknown
3:00 AM 33.4 °F 22.3 °F 26.6 °F 76% 30.14 in - SW 18.4 mph 27.6 mph N/A   Unknown
4:00 AM 33.8 °F 22.8 °F 27.1 °F 77% 30.16 in - SW 18.4 mph 25.3 mph N/A   Unknown
5:00 AM 33.8 °F 22.5 °F 27.3 °F 77% 30.16 in - SW 19.6 mph 27.6 mph N/A   Unknown
6:00 AM 34.5 °F 23.8 °F 28.9 °F 80% 30.18 in - WSW 18.4 mph 26.5 mph N/A   Unknown
7:00 AM 34 °F - 30 °F 78% 30.19 in - WSW 17.3 mph - -  
7:00 AM 34.0 °F 23.4 °F 29.7 °F 84% 30.19 in - WSW 17.3 mph 27.6 mph N/A   Unknown
8:00 AM 34.7 °F 24.3 °F 28.2 °F 77% 30.20 in - SW 17.3 mph 24.2 mph N/A   Unknown
9:00 AM 35.2 °F 25.0 °F 28.2 °F 76% 30.23 in - WSW 17.3 mph 25.3 mph N/A   Unknown
10:00 AM 36.0 °F 25.6 °F 29.3 °F 77% 30.26 in - WSW 18.4 mph 24.2 mph N/A   Unknown
11:00 AM 35.6 °F 25.5 °F 27.1 °F 71% 30.29 in - West 17.3 mph 25.3 mph N/A   Unknown
12:00 PM 35.8 °F 26.5 °F 27.5 °F 72% 30.30 in - WSW 15.0 mph 24.2 mph N/A   Unknown
1:00 PM 36 °F - 28 °F 61% 30.30 in - WSW 15.0 mph - -  
1:00 PM 36.5 °F 27.4 °F 27.5 °F 70% 30.30 in - WSW 15.0 mph - N/A   Unknown
2:00 PM 36.9 °F 28.7 °F 27.3 °F 68% 30.30 in - WSW 12.7 mph - N/A   Unknown
3:00 PM 37.0 °F 29.8 °F 27.7 °F 69% 30.31 in - WSW 10.4 mph - N/A   Unknown
4:00 PM 37.4 °F 32.1 °F 28.8 °F 71% 30.31 in - SW 6.9 mph - N/A   Unknown
5:00 PM 34.5 °F 30.4 °F 28.8 °F 79% 30.31 in - South 4.6 mph - N/A   Unknown
6:00 PM 32.0 °F 27.5 °F 28.0 °F 85% 30.32 in - SE 4.6 mph - N/A   Unknown
7:00 PM 32 °F - 28 °F 80% 30.33 in - SE 5.8 mph - -  
7:00 PM 32.0 °F 26.4 °F 28.2 °F 86% 30.33 in - SE 5.8 mph - N/A   Unknown
8:00 PM 31.3 °F 24.7 °F 27.5 °F 86% 30.33 in - SSE 6.9 mph - N/A   Unknown
9:00 PM 32.9 °F 25.9 °F 27.9 °F 82% 30.33 in - SSE 8.1 mph - N/A   Unknown
10:00 PM 31.5 °F 24.2 °F 28.6 °F 89% 30.34 in - SSE 8.1 mph - N/A   Unknown
11:00 PM 31.5 °F 23.5 °F 28.4 °F 88% 30.35 in - South 9.2 mph - N/A   Unknown